Location: Rounton
(54.4000°N, 1.3500°W)
Time: 02:43:20
(UTC+01:00)

IRIDIUM 33 DEB - Pass Details

Date: 11 July 2022
Orbit: 708 x 709 km, 86.3° (Epoch: 10 August)

Event Time Altitude Azimuth Distance (km) Brightness Sun altitude
Rises 01:37:05 0° 7° (N) 3,120 ? -13.3°
Reaches altitude 10° 01:41:19 10° 42° (NE) 2,195 ? -13.2°
Maximum altitude 01:42:43 11° 59° (ENE) 2,118 ? -13.2°
Drops below altitude 10° 01:44:07 10° 76° (ENE) 2,192 ? -13.1°
Sets 01:48:19 0° 111° (ESE) 3,105 ? -13.1°
